Temp
69 68 67 66 65 66 67 68 68 68 68 68 68 68 68 67 67 66 66 66 65 65
68 66 66 66 66 66 66 68 68 68 68 68 68 68 68 67 67 67 66 66 66 65
68 68 66 65 65 65 66 67 67 67 68 68 68 68 67 66 67 66 66 67 65 65
68 68 67 67 67 66 66 67 67 67 67 67 67 67 66 66 67 66 65 66 65 65
68 68 66 66 67 67 67 67 67 67 67 67 68 67 66 67 68 66 65 66 65 65
66 66 66 66 66 66 66 66 67 67 67 67 67 67 67 66 66 66 65 66 65 65
66 65 65 66 66 67 66 66 66 67 67 67 67 67 67 67 66 66 66 66 65 65
66 67 66 66 66 67 66 67 67 67 67 67 67 69 67 67 66 66 66 66 66 66
67 66 66 65 65 66 68 67 67 67 67 67 69 66 65 67 67 66 65 65 66 65
66 65 65 65 65 66 67 69 68 67 67 67 67 63 63 65 67 66 65 64 63 63
65 65 66 66 65 67 68 68 67 66 67 66 66 61 60 63 66 66 65 63 62 62
66 66 66 66 65 66 66 66 65 66 66 65 66 59 59 61 64 63 63 62 61 61
68 67 66 66 66 66 66 66 65 63 63 62 64 59 57 60 62 61 61 60 60 58
68 67 67 65 65 65 64 64 62 62 62 62 62 63 57 56 59 61 60 59 60 58
MSLP
1013.92 1014.72 1015.25 1015.49 1016.02 1016.30 1016.46 1016.51 1016.76 1017.11 1017.36 1017.61 1017.82 1017.96 1018.12 1018.39 1018.65 1018.84 1019.02 1019.08 1019.24 1019.36
1013.36 1014.03 1014.75 1015.14 1015.58 1015.77 1016.02 1016.30 1016.45 1016.75 1017.19 1017.40 1017.57 1017.80 1017.93 1018.20 1018.42 1018.57 1018.64 1018.67 1018.77 1018.98
1012.66 1013.40 1013.81 1014.61 1015.19 1015.50 1015.84 1016.29 1016.58 1016.75 1016.98 1017.35 1017.53 1017.55 1017.83 1017.98 1018.02 1018.23 1018.28 1018.40 1018.54 1018.63
1012.18 1012.84 1013.22 1013.99 1014.48 1014.91 1015.56 1016.12 1016.66 1016.97 1017.24 1017.15 1017.30 1017.45 1017.63 1017.79 1017.91 1017.94 1018.02 1017.98 1017.97 1017.89
1011.69 1012.25 1013.02 1013.24 1013.97 1014.54 1015.01 1015.51 1016.13 1016.60 1016.93 1017.11 1017.19 1017.24 1017.27 1017.33 1017.45 1017.50 1017.55 1017.53 1017.54 1017.26
1011.33 1012.29 1012.92 1014.25 1014.00 1014.35 1014.93 1015.37 1015.84 1016.09 1016.45 1016.70 1016.34 1016.91 1016.76 1016.86 1017.03 1017.10 1017.10 1017.13 1017.01 1016.73
1010.98 1012.97 1013.64 1015.45 1015.04 1015.79 1015.72 1015.58 1015.54 1015.51 1015.54 1015.79 1015.60 1015.58 1016.11 1016.33 1016.44 1016.39 1016.45 1016.42 1016.21 1016.28
1011.25 1012.32 1013.03 1014.10 1014.46 1014.75 1014.91 1014.77 1015.11 1015.28 1015.35 1015.54 1015.55 1015.37 1015.39 1015.65 1015.84 1015.92 1015.89 1015.79 1015.74 1015.71
1010.49 1011.47 1010.81 1011.17 1012.99 1012.36 1013.75 1013.78 1014.09 1014.56 1014.66 1015.00 1014.85 1014.77 1014.88 1014.93 1015.16 1015.40 1015.62 1015.37 1015.14 1015.08
1009.49 1010.10 1009.89 1010.59 1011.25 1011.85 1012.33 1012.79 1012.88 1013.72 1014.08 1014.43 1014.13 1014.19 1014.35 1014.31 1014.52 1014.78 1014.93 1015.00 1015.12 1014.88
1008.68 1009.30 1009.79 1010.25 1010.82 1011.32 1011.38 1011.90 1012.47 1013.14 1013.50 1013.47 1013.64 1013.38 1013.68 1013.96 1014.28 1014.21 1014.16 1014.43 1014.56 1014.63
1007.87 1009.01 1010.10 1010.50 1011.02 1010.78 1010.79 1011.53 1012.23 1012.26 1012.52 1012.93 1013.12 1012.93 1013.46 1013.65 1013.77 1013.90 1013.88 1014.08 1014.21 1014.22
1007.60 1007.99 1008.66 1009.24 1009.84 1010.12 1010.52 1011.34 1012.15 1012.84 1012.74 1012.75 1012.64 1012.70 1013.20 1012.87 1013.18 1013.63 1013.65 1013.75 1013.95 1014.03
1006.95 1007.57 1008.20 1008.77 1009.23 1009.53 1010.24 1010.93 1011.20 1011.13 1011.69 1012.53 1012.87 1012.60 1012.30 1012.21 1012.51 1012.93 1013.42 1013.55 1013.67 1013.88
Wind_Speed
8 5 5 6 4 4 4 4 6 5 4 5 5 4 4 2 3 3 4 5 4 3
9 9 8 7 6 5 4 4 6 6 5 5 4 4 4 3 4 4 4 5 5 4
11 10 8 7 8 6 5 4 5 5 5 5 5 5 4 3 3 3 4 4 5 5
10 10 9 9 8 7 6 6 6 5 5 5 5 4 4 4 4 5 5 5 6 8
11 12 10 10 8 7 7 5 6 6 6 5 5 4 5 5 4 5 5 7 6 8
12 7 7 4 5 6 5 5 6 7 7 8 7 6 5 5 6 6 7 7 7 9
13 8 10 4 6 5 2 5 8 8 8 8 7 6 6 5 5 6 7 7 7 7
12 12 13 7 7 5 9 9 7 7 6 7 5 5 6 5 6 6 7 6 6 6
16 13 16 17 16 14 14 11 10 10 9 10 6 9 10 8 6 6 7 7 5 4
17 17 19 17 17 15 13 12 11 11 8 9 6 9 10 11 5 6 7 6 5 5
18 19 17 15 14 15 11 9 8 8 10 9 7 8 9 7 7 7 6 5 5 5
18 17 14 10 9 8 6 5 7 6 10 9 8 7 10 7 4 5 5 3 3 4
14 16 13 8 7 3 3 3 2 5 4 7 7 9 12 6 2 4 3 2 3 4
11 12 8 9 6 6 7 7 9 11 8 6 8 7 9 6 4 4 3 3 2 2
Wind_Direction
168 175 190 178 166 183 188 185 169 180 177 181 183 183 186 183 209 208 219 218 208 209
175 165 185 181 181 186 183 187 174 181 181 193 185 197 187 197 213 208 221 223 211 219
177 183 169 168 188 185 186 189 172 184 189 198 207 197 191 213 224 225 236 239 225 228
180 176 171 179 187 175 172 185 184 185 202 207 219 210 208 227 240 236 249 234 230 243
176 173 180 180 181 169 178 171 175 188 205 216 227 226 221 229 237 238 246 253 238 249
178 182 178 208 182 160 170 171 195 196 202 213 205 229 230 226 237 236 238 247 244 252
165 98 79 8 32 346 215 201 218 216 211 220 214 196 225 229 238 245 248 243 235 248
130 129 130 110 333 278 233 220 219 224 226 229 220 221 216 222 239 248 253 247 250 247
150 156 153 173 211 213 240 218 210 222 209 223 216 224 225 221 234 245 248 259 262 253
165 171 174 192 206 216 213 220 213 220 213 227 221 219 236 236 229 236 241 250 270 289
174 185 195 202 206 217 213 217 214 202 221 222 226 207 236 229 236 240 235 231 240 249
181 185 195 222 215 213 198 201 201 207 221 217 228 210 242 240 238 246 239 230 239 238
179 184 198 185 193 162 120 114 86 316 308 266 258 228 248 212 171 247 246 228 254 249
177 185 187 156 155 138 138 153 172 185 178 224 258 263 261 240 181 205 221 238 255 269